TimeCDT,TemperatureF,Dew PointF,Humidity,Sea Level PressureIn,VisibilityMPH,Wind Direction,Wind SpeedMPH,Gust SpeedMPH,PrecipitationIn,Events,Conditions,WindDirDegrees,DateUTC
12:14 AM,37.4,28.4,70,30.16,10.0,WNW,25.3,32.2,N/A,,Overcast,290,2012-10-05 05:14:00
12:33 AM,37.4,28.4,70,30.16,10.0,West,28.8,33.4,N/A,,Overcast,280,2012-10-05 05:33:00
12:53 AM,37.4,26.6,65,30.16,10.0,WNW,25.3,32.2,N/A,,Overcast,290,2012-10-05 05:53:00
1:14 AM,37.4,26.6,65,30.17,10.0,WNW,23.0,32.2,N/A,,Overcast,290,2012-10-05 06:14:00
1:33 AM,37.4,26.6,65,30.17,10.0,West,21.9,29.9,N/A,,Overcast,280,2012-10-05 06:33:00
1:53 AM,37.4,26.6,65,30.16,10.0,West,21.9,25.3,N/A,,Overcast,280,2012-10-05 06:53:00
2:14 AM,35.6,26.6,70,30.16,10.0,WNW,20.7,27.6,N/A,,Overcast,290,2012-10-05 07:14:00
2:33 AM,35.6,26.6,70,30.16,10.0,West,20.7,-,N/A,,Overcast,280,2012-10-05 07:33:00
3:14 AM,33.8,26.6,75,30.15,10.0,West,15.0,-,N/A,,Clear,270,2012-10-05 08:14:00
3:33 AM,32.0,26.6,80,30.15,10.0,West,16.1,20.7,N/A,,Clear,280,2012-10-05 08:33:00
3:53 AM,30.2,26.6,86,30.14,10.0,West,15.0,20.7,N/A,,Clear,280,2012-10-05 08:53:00
4:14 AM,30.2,26.6,86,30.14,10.0,West,15.0,25.3,N/A,,Clear,280,2012-10-05 09:14:00
4:33 AM,30.2,26.6,86,30.14,10.0,West,17.3,23.0,N/A,,Clear,280,2012-10-05 09:33:00
4:54 AM,30.2,26.6,86,30.14,10.0,West,18.4,23.0,N/A,,Clear,280,2012-10-05 09:54:00
5:13 AM,30.2,26.6,86,30.14,10.0,West,16.1,23.0,N/A,,Clear,280,2012-10-05 10:13:00
5:33 AM,30.2,26.6,86,30.15,10.0,West,13.8,-,N/A,,Clear,280,2012-10-05 10:33:00
5:54 AM,28.4,26.6,93,30.15,10.0,West,13.8,-,N/A,,Scattered Clouds,280,2012-10-05 10:54:00
6:13 AM,28.4,24.8,86,30.15,10.0,West,13.8,-,N/A,,Clear,270,2012-10-05 11:13:00
6:33 AM,28.4,24.8,86,30.14,10.0,West,18.4,23.0,N/A,,Clear,280,2012-10-05 11:33:00
6:54 AM,28.4,24.8,86,30.14,10.0,West,15.0,21.9,N/A,,Clear,280,2012-10-05 11:54:00
7:13 AM,28.4,24.8,86,30.14,10.0,West,16.1,-,N/A,,Clear,280,2012-10-05 12:13:00
7:33 AM,28.4,24.8,86,30.14,10.0,West,17.3,21.9,N/A,,Clear,280,2012-10-05 12:33:00
7:54 AM,28.4,24.8,86,30.15,10.0,West,15.0,20.7,N/A,,Clear,280,2012-10-05 12:54:00
8:13 AM,28.4,24.8,86,30.15,10.0,West,17.3,20.7,N/A,,Scattered Clouds,280,2012-10-05 13:13:00
8:33 AM,28.4,24.8,86,30.15,10.0,West,19.6,23.0,N/A,,Scattered Clouds,280,2012-10-05 13:33:00
8:54 AM,30.2,24.8,80,30.16,10.0,WNW,19.6,25.3,N/A,,Scattered Clouds,290,2012-10-05 13:54:00
9:33 AM,32.0,24.8,75,30.16,10.0,WNW,18.4,24.2,N/A,,Mostly Cloudy,290,2012-10-05 14:33:00
9:54 AM,33.8,26.6,75,30.17,10.0,WNW,18.4,26.5,N/A,,Mostly Cloudy,290,2012-10-05 14:54:00
10:13 AM,35.6,26.6,70,30.17,10.0,WNW,23.0,26.5,N/A,,Mostly Cloudy,290,2012-10-05 15:13:00
10:33 AM,35.6,26.6,70,30.17,10.0,WNW,19.6,27.6,N/A,,Mostly Cloudy,300,2012-10-05 15:33:00
10:54 AM,35.6,26.6,70,30.17,10.0,WNW,18.4,28.8,N/A,,Mostly Cloudy,300,2012-10-05 15:54:00
11:13 AM,35.6,26.6,70,30.17,10.0,WNW,24.2,29.9,N/A,,Mostly Cloudy,300,2012-10-05 16:13:00
11:33 AM,37.4,26.6,65,30.16,10.0,WNW,25.3,33.4,N/A,,Scattered Clouds,290,2012-10-05 16:33:00
12:13 PM,39.2,26.6,61,30.16,10.0,WNW,23.0,32.2,N/A,,Mostly Cloudy,290,2012-10-05 17:13:00
12:33 PM,37.4,24.8,60,30.16,10.0,WNW,23.0,31.1,N/A,,Mostly Cloudy,300,2012-10-05 17:33:00
12:54 PM,39.2,24.8,56,30.16,10.0,WNW,21.9,31.1,N/A,,Overcast,290,2012-10-05 17:54:00
1:13 PM,39.2,24.8,56,30.16,10.0,WNW,23.0,32.2,N/A,,Overcast,300,2012-10-05 18:13:00
1:33 PM,39.2,24.8,56,30.16,10.0,WNW,27.6,34.5,N/A,,Overcast,300,2012-10-05 18:33:00
1:54 PM,39.2,24.8,56,30.15,10.0,WNW,26.5,33.4,N/A,,Overcast,300,2012-10-05 18:54:00
2:13 PM,39.2,24.8,56,30.16,10.0,WNW,26.5,32.2,N/A,,Overcast,290,2012-10-05 19:13:00
2:33 PM,37.4,24.8,60,30.16,10.0,WNW,26.5,36.8,N/A,,Overcast,300,2012-10-05 19:33:00
2:54 PM,39.2,26.6,61,30.16,10.0,West,26.5,33.4,N/A,,Overcast,280,2012-10-05 19:54:00
3:13 PM,39.2,26.6,61,30.15,10.0,West,25.3,33.4,N/A,,Overcast,280,2012-10-05 20:13:00
3:34 PM,39.2,24.8,56,30.16,10.0,WNW,23.0,28.8,N/A,,Overcast,290,2012-10-05 20:34:00
3:53 PM,39.2,26.6,61,30.16,10.0,West,21.9,31.1,N/A,,Overcast,280,2012-10-05 20:53:00
4:13 PM,37.4,24.8,60,30.16,10.0,WNW,23.0,31.1,N/A,,Overcast,290,2012-10-05 21:13:00
4:34 PM,39.2,24.8,56,30.15,10.0,West,21.9,26.5,N/A,,Overcast,280,2012-10-05 21:34:00
4:53 PM,37.4,24.8,60,30.16,10.0,WNW,21.9,29.9,N/A,,Overcast,290,2012-10-05 21:53:00
5:13 PM,37.4,24.8,60,30.16,10.0,WNW,19.6,32.2,N/A,,Overcast,290,2012-10-05 22:13:00
5:34 PM,37.4,26.6,65,30.16,10.0,West,27.6,33.4,N/A,,Overcast,280,2012-10-05 22:34:00
5:53 PM,37.4,24.8,60,30.16,10.0,WNW,24.2,33.4,N/A,,Overcast,300,2012-10-05 22:53:00
6:13 PM,37.4,26.6,65,30.16,10.0,WNW,20.7,26.5,N/A,,Overcast,290,2012-10-05 23:13:00
6:34 PM,37.4,26.6,65,30.16,10.0,WNW,20.7,31.1,N/A,,Overcast,300,2012-10-05 23:34:00
6:53 PM,37.4,26.6,65,30.17,10.0,WNW,23.0,29.9,N/A,,Overcast,290,2012-10-05 23:53:00
7:13 PM,37.4,26.6,65,30.17,10.0,WNW,19.6,25.3,N/A,,Overcast,300,2012-10-06 00:13:00
7:34 PM,37.4,28.4,70,30.18,10.0,NW,13.8,19.6,N/A,,Overcast,310,2012-10-06 00:34:00
7:53 PM,35.6,28.4,75,30.19,10.0,NW,17.3,27.6,N/A,,Mostly Cloudy,310,2012-10-06 00:53:00
8:13 PM,35.6,28.4,75,30.19,10.0,WNW,23.0,29.9,N/A,,Mostly Cloudy,300,2012-10-06 01:13:00
8:34 PM,33.8,26.6,75,30.19,10.0,WNW,19.6,24.2,N/A,,Scattered Clouds,300,2012-10-06 01:34:00
8:53 PM,33.8,26.6,75,30.19,10.0,WNW,17.3,21.9,N/A,,Clear,300,2012-10-06 01:53:00
9:13 PM,33.8,28.4,81,30.19,10.0,WNW,18.4,23.0,N/A,,Mostly Cloudy,290,2012-10-06 02:13:00
9:34 PM,33.8,28.4,81,30.20,10.0,WNW,16.1,24.2,N/A,,Mostly Cloudy,300,2012-10-06 02:34:00
9:53 PM,33.8,28.4,81,30.20,10.0,WNW,17.3,23.0,N/A,,Overcast,290,2012-10-06 02:53:00
10:14 PM,33.8,28.4,81,30.20,10.0,WNW,18.4,26.5,N/A,,Overcast,300,2012-10-06 03:14:00
10:33 PM,33.8,28.4,81,30.20,10.0,WNW,17.3,24.2,N/A,,Mostly Cloudy,300,2012-10-06 03:33:00
10:53 PM,33.8,28.4,81,30.20,10.0,WNW,16.1,23.0,N/A,,Scattered Clouds,300,2012-10-06 03:53:00
11:33 PM,33.8,28.4,81,30.20,10.0,WNW,13.8,-,N/A,,Mostly Cloudy,290,2012-10-06 04:33:00
11:53 PM,33.8,28.4,81,30.20,10.0,WNW,12.7,20.7,N/A,,Overcast,300,2012-10-06 04:53:00